AMC-6

Last updated on Sun Jun 21 2026 00:03:03 GMT+0000 (Coordinated Universal Time)

1 26580U 00067A 26171.39489199 .00000084 00000+0 00000+0 0 9993 2 26580 0.1614 83.1922 0003583 14.3540 178.1789 1.00270149 93924
UTC large
Height (km)
Speed (km/s)
/
Latitude / Longitude
Inclination (degrees)
Orbital Period (minutes)
Azimuth
Elevation
Range (km)
Doppler Factor

Next 0 passes for location: London (51.5072 / 0.1276)

No passes found over London.
AMC-6